[[{"header":{"parameterUnit":"m.s-1","parameterCategory":1,"la1":30.2991,"la2":30.254,"lo1":-89.0895,"lo2":-89.0444,"dy":0.0017,"dx":0.0017,"nx":28,"ny":28,"refTime":"2024-10-13T21:00:00:Z","depth":0,"parameterNumber":2,"parameterNumberName":"U-component_of_WINDS"},"data":[0,0,0,0,0,0,0,0,0,0,0,0,0,0,0,0,0,0,0,0,0,0,0,0,0,0,0,0,0,0,0,0,0,0,0,0,0,0,0,0,0,0,0,0,0,0,0,0,0,0,0,0,0,0,0,0,0,0,2.1336,2.1339,0,2.1547,2.1549,2.1552,2.1624,2.1623,2.1622,2.1621,2.1836,2.1842,2.1848,0,0,0,0,0,0,0,0,0,0,0,0,0,2.0996,2.1002,2.1336,2.1339,2.1341,2.1546,2.1549,2.1552,2.1624,2.1623,2.1622,2.1621,2.1834,2.1841,2.1849,0,0,0,0,0,0,0,0,0,0,0,0,0,2.1169,2.1004,2.1336,2.1402,2.141,2.1546,2.1549,2.1553,2.1624,2.1623,2.1621,2.162,2.1831,2.184,2.185,2.1935,0,0,2.188,2.1884,0,0,0,0,0,0,0,0,2.1159,2.1181,2.139,2.1398,2.1407,2.1558,2.1508,2.1681,2.1624,2.1543,2.1621,2.162,2.1744,2.1761,2.1803,2.1945,2.1954,2.1881,2.1887,2.1891,2.1893,0,0,0,0,0,0,0,2.1147,2.1172,2.1419,2.1392,2.1403,2.1421,2.1444,2.1541,2.1648,2.155,2.1555,2.1579,2.1749,2.1794,2.1809,2.1958,2.188,2.1889,2.1895,2.1899,2.218,2.2182,0,0,0,0,0,0,2.1124,2.1162,2.1413,2.1426,2.1277,2.1428,2.1454,2.151,2.1647,2.1667,2.158,2.1582,2.1778,2.1797,2.1816,2.1925,2.1891,2.19,2.1905,2.2179,2.2181,2.2182,0,0,0,0,0,0,2.1116,2.1145,2.1404,2.1296,2.133,2.1435,2.1498,2.1515,2.156,2.167,2.1689,2.1607,2.1777,2.1803,2.1905,2.1933,2.1904,2.1913,2.2177,2.2179,2.2182,2.2142,0,0,0,0,0,0,2.1106,2.1142,2.1175,2.1296,2.1335,2.1489,2.15,2.152,2.1577,2.1581,2.17,2.1718,2.1778,2.189,2.1915,2.1946,2.1921,2.2175,2.2178,2.2181,2.2141,2.2143,2.2144,0,0,0,0,0,2.1094,2.1156,2.1177,2.1207,2.1379,2.1491,2.1513,2.1581,2.1579,2.1613,2.1684,2.1715,2.1927,2.19,2.1928,2.1963,2.2173,2.2177,2.2181,2.214,2.2142,2.2144,0,0,0,0,0,0,2.1035,2.1173,2.1198,2.13,2.1383,2.1503,2.1548,2.1581,2.1666,2.1667,2.1748,2.1774,2.187,2.1927,2.1895,2.2053,2.2052,2.2061,2.2011,2.2014,2.2016,2.1999,2.1929,0,0,0,0,0,2.1034,2.1114,2.123,2.1309,2.135,2.1441,2.1493,2.1538,2.1627,2.1662,2.1741,2.1826,2.1912,2.1966,2.2052,2.2151,2.2177,2.2188,2.219,2.219,2.2197,2.2254,2.226,2.2195,2.2195,2.2194,0,0,2.1033,2.1118,2.1163,2.13,2.1369,2.1449,2.1471,2.1554,2.1614,2.1675,2.1776,2.1837,2.1937,2.2038,2.2087,2.2089,2.2221,2.2195,2.2195,2.2202,2.2258,2.2264,2.2269,2.2197,2.2197,2.2196,0,0,2.1072,2.1145,2.1219,2.1288,2.1394,2.1455,2.1473,2.1588,2.163,2.1733,2.1781,2.1854,2.2,2.2069,2.2124,2.219,2.2221,2.2216,2.2223,2.2277,2.2282,2.2287,2.231,2.2317,2.2223,2.2223,2.2223,0,2.1057,2.118,2.1253,2.1334,2.1393,2.1452,2.1528,2.1592,2.172,2.1758,2.176,2.1945,2.2017,2.2135,2.2151,2.2193,2.2216,2.2202,2.2275,2.2281,2.2287,2.231,2.2318,2.2221,2.2221,2.2221,2.2222,0,2.1156,2.124,2.1288,2.141,2.1474,2.1552,2.1637,2.1693,2.1733,2.1794,2.1898,2.1987,2.2091,2.2123,2.2163,2.2247,2.2245,2.226,2.226,2.229,2.2313,2.2322,2.2219,2.222,2.222,2.222,0,0,2.1162,2.1324,2.134,2.1397,2.1518,2.1585,2.1666,2.1768,2.1815,2.1901,2.1971,2.2094,2.2109,2.217,2.2219,2.2267,2.2313,2.2276,2.228,2.2279,2.241,2.2397,2.2406,2.2335,2.2337,2.2339,2.2402,0,2.1215,2.1363,2.1431,2.1548,2.1627,2.1686,2.1756,2.1838,2.1898,2.1973,2.2039,2.2125,2.2138,2.2176,2.2226,2.2297,2.234,2.2293,2.24,2.2403,2.2371,2.2418,2.2405,2.246,2.2411,2.2413,2.2414,0,2.1297,2.1384,2.1509,2.1621,2.1657,2.1719,2.1819,2.1891,2.1985,2.2025,2.2094,2.2141,2.2229,2.2224,2.2346,2.2312,2.236,2.2402,2.2406,2.2417,2.2409,2.243,2.2479,2.2487,2.2429,2.2428,2.2427,0,2.1288,2.1436,2.153,2.1577,2.1711,2.1753,2.1811,2.1904,2.1961,2.2049,2.2087,2.2183,2.2235,2.2308,2.238,2.237,2.2494,2.2495,2.2529,2.2527,2.2551,2.2549,2.2608,2.2584,2.2584,2.2584,2.2584,0,2.1339,2.1413,2.1528,2.1585,2.167,2.1748,2.183,2.1892,2.1974,2.2045,2.2102,2.2167,2.2258,2.2335,2.2392,2.2483,2.2507,2.2541,2.2555,2.2536,2.2531,2.2567,2.2565,2.2586,2.2586,2.2585,2.2585,0,2.1342,2.1422,2.1528,2.1647,2.1678,2.1735,2.1837,2.1895,2.1958,2.2046,2.2072,2.217,2.2263,2.2343,2.2465,2.2503,2.2598,2.2615,2.2566,2.2573,2.2602,2.2597,2.2685,2.27,2.2667,2.2667,2.2667,0,2.1369,2.1428,2.1553,2.1604,2.1661,2.1744,2.1803,2.1883,2.1942,2.2054,2.2099,2.2196,2.2278,2.2424,2.2507,2.2601,2.262,2.2645,2.2635,2.2613,2.262,2.2615,2.2621,2.2644,2.2644,2.2644,2.2644,0,2.1409,2.1446,2.1529,2.1626,2.1695,2.1775,2.1857,2.1896,2.1991,2.2054,2.2151,2.2214,2.234,2.2436,2.2539,2.2599,2.2637,2.2647,2.266,2.2639,2.2608,2.2624,2.2566,2.2644,2.2644,2.2644,2.2644,2.2644,2.1424,2.1479,2.1575,2.1666,2.1736,2.1812,2.1872,2.1943,2.2025,2.2133,2.2176,2.2274,2.2368,2.2511,2.257,2.2648,2.2654,2.2672,2.2677,2.268,2.2676,2.2596,2.2667,2.2668,2.2668,2.2668,2.2668,0,2.1466,2.1531,2.1614,2.1727,2.1798,2.183,2.1922,2.1979,2.2065,2.215,2.223,2.234,2.2434,2.2524,2.2622,2.2667,2.2687,2.269,2.2687,2.27,2.2666,2.2645,2.2672,2.2672,2.2672,2.2672,2.2672,2.2672,2.1495,2.1589,2.1638,2.1767,2.1832,2.1929,2.1979,2.2049,2.2117,2.2238,2.2316,2.2374,2.2462,2.2567,2.2654,2.2678,2.2711,2.2709,2.2737,2.2704,2.2702,2.2701,2.2681,2.2716,2.2716,2.2765,2.2765,2.2766]},{"header":{"parameterUnit":"m.s-1","parameterCategory":1,"la1":30.2991,"la2":30.254,"lo1":-89.0895,"lo2":-89.0444,"dy":0.0017,"dx":0.0017,"nx":28,"ny":28,"refTime":"2024-10-13T21:00:00:Z","depth":0,"parameterNumber":3,"parameterNumberName":"V-component_of_WINDS"},"data":[0,0,0,0,0,0,0,0,0,0,0,0,0,0,0,0,0,0,0,0,0,0,0,0,0,0,0,0,0,0,0,0,0,0,0,0,0,0,0,0,0,0,0,0,0,0,0,0,0,0,0,0,0,0,0,0,0,0,3.389,3.389,0,3.3923,3.3923,3.3924,3.39,3.3898,3.3897,3.3896,3.3927,3.3928,3.393,0,0,0,0,0,0,0,0,0,0,0,0,0,3.3801,3.3802,3.389,3.389,3.3891,3.3923,3.3923,3.3924,3.39,3.3898,3.3897,3.3896,3.3926,3.3928,3.393,0,0,0,0,0,0,0,0,0,0,0,0,0,3.3837,3.3803,3.389,3.3883,3.3882,3.3923,3.3923,3.3924,3.39,3.3898,3.3897,3.3895,3.3925,3.3928,3.393,3.3979,0,0,3.3939,3.394,0,0,0,0,0,0,0,0,3.3835,3.384,3.3883,3.3883,3.3883,3.3906,3.3903,3.3942,3.39,3.3893,3.3896,3.3895,3.3921,3.3924,3.3933,3.398,3.3981,3.3939,3.3941,3.3942,3.3942,0,0,0,0,0,0,0,3.3833,3.3839,3.3903,3.3884,3.3884,3.3876,3.388,3.391,3.3915,3.3894,3.3892,3.3896,3.392,3.3931,3.3934,3.3982,3.3939,3.3941,3.3943,3.3944,3.4068,3.407,0,0,0,0,0,0,3.3831,3.3837,3.3902,3.3904,3.3855,3.3879,3.3883,3.39,3.3915,3.3916,3.3898,3.3895,3.3927,3.3931,3.3935,3.3991,3.3942,3.3944,3.3946,3.4067,3.4069,3.4071,0,0,0,0,0,0,3.3829,3.3837,3.39,3.387,3.3877,3.3882,3.3901,3.3901,3.3912,3.3918,3.3918,3.3908,3.3926,3.3931,3.3968,3.3992,3.3945,3.3948,3.4065,3.4067,3.407,3.4106,0,0,0,0,0,0,3.3827,3.3837,3.3856,3.3871,3.3879,3.3935,3.3903,3.3903,3.3917,3.3914,3.3928,3.3928,3.3925,3.3964,3.3971,3.3995,3.395,3.4063,3.4066,3.4069,3.4102,3.4109,3.4115,0,0,0,0,0,3.3824,3.3865,3.3858,3.3866,3.3904,3.3936,3.3941,3.3937,3.3919,3.3938,3.3942,3.3928,3.3988,3.3968,3.3975,3.4001,3.4061,3.4065,3.4069,3.41,3.4108,3.4115,0,0,0,0,0,0,3.3852,3.3866,3.3859,3.3906,3.392,3.3932,3.3956,3.3946,3.3965,3.3961,3.3955,3.3958,3.3997,3.4002,3.3979,3.4047,3.4022,3.4027,3.4043,3.4051,3.4057,3.4055,3.3952,0,0,0,0,0,3.3864,3.389,3.3901,3.3941,3.3949,3.3951,3.3965,3.3961,3.3975,3.3981,3.3987,3.4,3.4022,3.4036,3.4057,3.4103,3.4105,3.4124,3.413,3.4135,3.414,3.4164,3.4172,3.4083,3.4083,3.4083,0,0,3.3888,3.3899,3.3916,3.3947,3.3958,3.3983,3.3956,3.3985,3.4004,3.3984,3.402,3.4025,3.4039,3.4081,3.4099,3.4087,3.4165,3.414,3.4144,3.4146,3.4169,3.4177,3.4184,3.4086,3.4085,3.4085,0,0,3.3946,3.3958,3.3992,3.4003,3.402,3.4021,3.4029,3.4043,3.4046,3.4082,3.4068,3.4089,3.4127,3.4137,3.4148,3.4208,3.4196,3.4215,3.4248,3.4271,3.4278,3.4284,3.4305,3.4313,3.4219,3.422,3.422,0,3.3974,3.4014,3.401,3.4041,3.4054,3.4038,3.4072,3.4083,3.4105,3.4114,3.4099,3.4146,3.4154,3.4198,3.4213,3.4222,3.423,3.4213,3.4278,3.4284,3.4289,3.4309,3.4317,3.4222,3.4222,3.4221,3.4221,0,3.4047,3.4075,3.41,3.4123,3.4139,3.4171,3.4171,3.4187,3.4181,3.4183,3.4219,3.4229,3.425,3.426,3.4255,3.4303,3.4294,3.4279,3.4253,3.43,3.4319,3.4326,3.4225,3.4224,3.4223,3.4223,0,0,3.4124,3.4145,3.4154,3.4164,3.4181,3.4201,3.4231,3.4254,3.4267,3.4283,3.4307,3.4339,3.4325,3.4337,3.4332,3.4352,3.4399,3.4334,3.4334,3.4346,3.4451,3.4463,3.4472,3.4391,3.4392,3.4393,3.445,0,3.4183,3.4237,3.4234,3.4284,3.4309,3.4294,3.432,3.4332,3.4335,3.4355,3.4357,3.438,3.436,3.4367,3.4386,3.4389,3.442,3.4385,3.4412,3.4413,3.4409,3.4482,3.4494,3.4547,3.4457,3.4459,3.4459,0,3.4258,3.4278,3.4331,3.4343,3.4353,3.4377,3.4397,3.4417,3.443,3.443,3.4443,3.4434,3.4463,3.4436,3.4475,3.4451,3.4462,3.4465,3.4467,3.4469,3.4439,3.4486,3.4564,3.4572,3.4471,3.447,3.4469,0,3.4309,3.4348,3.4384,3.4393,3.4409,3.4425,3.4432,3.4444,3.4457,3.4474,3.4482,3.4501,3.4512,3.4527,3.4523,3.4504,3.4562,3.4535,3.4563,3.4563,3.4576,3.4575,3.4657,3.4583,3.4583,3.4583,3.4582,0,3.4375,3.4408,3.4407,3.443,3.4465,3.4461,3.4496,3.4501,3.4511,3.4533,3.452,3.4541,3.4535,3.4555,3.4552,3.4584,3.4589,3.4589,3.4588,3.459,3.459,3.4597,3.4593,3.4585,3.4584,3.4584,3.4583,0,3.4437,3.4439,3.4477,3.4489,3.4492,3.4518,3.4527,3.4548,3.4549,3.4577,3.4583,3.4584,3.4607,3.4605,3.463,3.4628,3.4668,3.4662,3.4664,3.4663,3.469,3.4687,3.4779,3.4791,3.4709,3.471,3.4711,0,3.4479,3.4505,3.4519,3.4533,3.4542,3.4565,3.4578,3.4574,3.4588,3.4605,3.4623,3.4644,3.4662,3.4698,3.4701,3.472,3.4714,3.4745,3.4717,3.4719,3.4715,3.4713,3.4715,3.4751,3.4752,3.4753,3.4753,0,3.4554,3.4553,3.4574,3.4594,3.4611,3.4627,3.4642,3.4654,3.465,3.4667,3.4691,3.4704,3.473,3.4751,3.4769,3.4774,3.4763,3.4762,3.4769,3.4772,3.4772,3.4772,3.4679,3.476,3.4759,3.4759,3.4758,3.4758,3.4607,3.4628,3.4642,3.4665,3.4675,3.4689,3.4709,3.4712,3.4732,3.4754,3.4749,3.4776,3.4786,3.4809,3.4817,3.4836,3.4825,3.4835,3.4838,3.4841,3.4844,3.4769,3.4839,3.4839,3.4839,3.4839,3.4839,0,3.468,3.4688,3.4709,3.473,3.4748,3.4737,3.4752,3.4767,3.4791,3.4802,3.482,3.4846,3.4867,3.4871,3.489,3.4905,3.49,3.491,3.4909,3.491,3.4853,3.4845,3.4913,3.4913,3.4913,3.4913,3.4913,3.4913,3.472,3.4756,3.4756,3.4796,3.4803,3.4829,3.4839,3.4851,3.486,3.489,3.4908,3.491,3.4919,3.4938,3.4956,3.4956,3.4964,3.4976,3.4974,3.4921,3.4914,3.4907,3.4899,3.4978,3.4978,3.503,3.503,3.503]}]]